Theta_e
317 316 315 314 314 314 315 315 315 315 314 314 315 316 316 317 317 318 318 319 320 320 320 320 320 320 317 316 313 319 333 327 318 318 316 316 315 314 310 314 315 312 312 313 315 316 315
317 316 315 315 315 314 314 314 314 314 314 315 315 316 316 316 317 318 318 319 319 319 319 320 319 318 316 311 320 320 320 319 319 318 316 317 317 318 314 313 312 314 312 311 313 311 312
316 316 316 315 314 314 314 314 314 314 315 315 315 315 316 316 317 318 318 319 319 319 320 320 320 319 319 313 320 321 320 319 319 318 315 318 319 315 315 311 315 313 308 309 310 310 309
316 316 316 315 314 314 313 314 313 314 315 315 315 315 315 316 317 318 319 319 319 319 320 321 321 320 314 319 321 318 320 317 318 319 318 318 317 314 313 315 312 308 308 302 309 311 310
317 316 315 314 314 313 313 313 313 314 314 315 315 315 315 316 317 318 318 318 319 320 321 321 319 319 312 320 314 317 319 315 316 317 317 317 314 311 312 307 305 307 301 303 305 311 309
317 316 315 314 313 312 312 312 313 313 314 315 315 315 315 316 317 317 317 317 320 318 320 319 320 314 314 310 314 315 318 316 313 313 312 310 309 306 306 305 297 301 302 304 303 308 308
317 316 315 314 313 312 312 312 312 313 313 314 314 315 315 316 317 316 315 318 315 315 318 313 310 309 310 314 316 314 316 314 313 311 305 309 303 301 304 307 307 306 304 303 306 309 306
316 316 315 314 313 312 311 311 311 312 313 313 313 314 315 316 316 316 316 317 316 318 310 311 311 311 313 314 309 311 315 310 308 304 308 307 302 307 309 307 305 304 302 302 306 308 307
315 315 315 314 312 311 311 311 311 311 312 312 312 313 314 315 315 315 319 317 322 321 311 309 311 310 310 313 308 309 314 311 308 306 306 303 306 308 306 305 302 303 302 302 302 305 306
315 315 314 313 312 311 311 311 311 311 311 311 311 312 314 313 314 320 317 320 321 323 306 303 306 309 311 312 307 313 314 311 307 305 305 305 308 306 304 302 305 300 306 305 303 301 296
315 314 314 313 312 311 310 310 310 311 311 311 311 312 313 310 319 317 320 321 322 319 296 306 307 315 312 308 309 310 316 313 306 306 304 303 304 303 302 304 307 303 306 304 303 300 299
315 314 313 313 312 311 310 309 310 310 310 310 311 311 311 318 320 320 320 321 318 304 295 302 307 306 306 308 307 310 311 313 311 306 306 305 308 305 305 307 306 306 303 303 303 301 294
314 313 313 313 312 311 310 309 309 309 309 309 310 310 310 321 318 322 322 316 303 299 307 302 303 306 305 305 305 306 306 306 302 300 301 303 303 306 306 303 306 306 301 293 293 293 293
314 313 312 312 312 310 310 309 309 308 308 309 308 307 317 323 324 324 322 311 299 305 302 307 305 304 302 305 305 304 304 303 306 303 300 298 296 304 306 302 299 300 300 293 287 289 292
314 313 313 312 311 310 309 309 308 308 307 307 306 322 321 326 324 324 316 304 303 304 305 303 304 301 303 304 303 302 303 303 304 305 299 298 298 305 304 304 303 301 298 303 296 296 292
314 314 313 311 311 310 309 309 308 308 307 307 315 322 322 323 327 323 312 304 307 307 306 305 300 303 300 302 300 302 303 305 303 305 307 304 296 303 304 305 304 301 305 295 296 289 287
314 314 313 311 310 310 309 309 308 308 306 307 319 317 321 323 324 316 306 306 306 309 309 305 303 301 301 300 300 300 300 305 306 306 306 305 301 300 303 301 300 301 299 300 300 297 290
315 314 313 312 311 310 309 308 308 307 305 311 318 309 321 320 308 311 307 309 302 307 308 306 306 304 302 303 301 300 299 306 307 306 301 306 302 295 298 304 306 303 300 299 296 292 295
315 314 313 312 311 309 309 308 308 307 306 307 311 312 318 317 305 308 310 306 307 305 306 306 304 305 306 303 300 302 302 308 308 304 304 305 300 294 296 300 305 301 301 301 300 301 293
315 315 314 312 311 309 309 308 308 307 306 308 312 305 310 312 313 309 306 305 304 306 305 306 306 306 304 303 305 301 302 307 307 304 308 304 298 295 291 296 300 296 297 298 298 299 292
315 315 315 313 311 309 308 308 308 306 305 310 314 308 309 305 307 307 307 306 302 302 305 306 304 303 303 301 301 301 303 303 305 305 304 304 297 299 299 298 298 296 296 296 295 295 292
314 315 315 314 311 309 308 308 308 307 305 314 306 305 309 309 307 306 300 304 302 304 303 303 302 304 304 301 302 300 303 303 302 306 303 305 297 299 296 299 298 295 297 296 296 296 295
314 314 314 315 311 308 307 308 308 307 306 310 309 313 309 306 306 304 305 304 304 304 305 305 304 303 302 305 307 308 306 306 305 302 302 301 298 297 291 297 295 291 295 297 295 297 296
312 312 313 314 312 308 306 307 308 307 306 308 308 307 307 303 304 302 302 301 301 303 302 304 304 302 308 311 308 305 304 303 303 303 305 299 299 299 292 294 284 296 300 299 296 297 298
310 310 311 312 312 309 306 306 307 307 307 304 310 305 306 301 304 301 301 302 303 304 303 302 305 309 310 304 299 298 299 300 301 302 303 304 300 292 291 289 292 293 298 297 293 293 300
308 309 309 311 312 308 307 305 306 307 307 304 310 308 306 303 302 303 302 303 300 302 303 304 308 309 307 301 298 293 292 296 295 299 303 303 302 296 292 284 281 293 300 302 301 290 299
308 308 308 310 312 309 306 306 305 305 306 303 308 315 306 302 306 305 302 302 305 303 301 304 304 303 307 300 296 294 294 299 292 292 294 297 297 293 291 287 291 299 300 302 288 290 300
307 307 308 308 310 310 307 305 305 305 305 303 308 312 303 302 304 305 305 303 304 305 300 305 303 303 301 297 297 297 296 297 296 297 295 293 292 291 293 290 286 302 300 292 297 301 300
307 307 306 307 308 310 307 305 304 305 305 304 306 310 308 301 303 307 307 308 306 307 304 307 303 304 305 301 301 300 297 297 297 293 300 292 297 294 295 295 304 304 303 303 302 299 296
Wind_Speed
21 23 23 23 23 21 20 19 18 18 18 17 16 14 13 12 11 10 10 10 9 9 9 8 6 4 6 8 1 9 6 4 6 10 14 16 17 16 18 19 19 18 12 14 14 19 19
21 22 23 24 22 22 21 20 19 18 18 16 15 14 13 12 11 11 10 10 9 10 9 7 4 2 6 12 11 9 9 11 13 15 16 18 15 15 17 20 18 15 11 18 17 8 20
22 23 23 23 23 23 22 22 21 19 18 16 15 15 13 12 11 11 11 10 10 10 10 7 5 6 11 7 2 9 8 13 10 14 15 15 11 11 11 14 12 11 13 13 14 16 16
22 23 23 23 24 24 23 23 24 22 19 17 16 14 13 12 12 12 11 11 11 11 10 7 5 8 8 3 8 5 10 6 5 7 10 7 6 11 15 14 6 9 14 17 18 24 16
22 22 23 24 24 24 24 24 23 22 21 19 16 14 14 13 13 12 11 12 11 11 9 5 7 9 6 3 10 2 7 8 7 7 4 4 9 14 14 12 14 14 16 20 23 13 13
23 23 24 24 25 25 25 24 24 23 22 20 17 15 14 13 13 12 11 7 4 6 9 10 12 12 8 6 5 3 1 8 7 8 9 10 9 13 14 13 14 19 17 17 14 14 7
22 23 24 24 25 26 26 25 25 24 23 21 19 17 15 13 12 10 10 6 7 7 11 12 2 3 3 7 7 7 2 7 8 8 11 15 12 14 19 21 21 9 14 15 8 11 4
22 23 23 24 25 26 26 26 25 24 23 22 21 18 16 15 13 8 5 8 8 10 6 3 1 2 6 2 5 7 5 8 7 13 15 13 14 16 7 6 8 9 12 14 12 3 3
21 22 23 24 24 25 26 26 26 25 24 23 21 19 17 14 13 5 12 7 9 8 7 7 4 5 6 9 5 5 8 5 11 9 9 14 8 8 4 5 6 10 13 12 10 13 10
20 21 22 24 24 25 26 27 26 27 25 24 23 20 17 17 4 12 7 4 8 6 8 9 9 5 7 3 4 3 4 8 5 11 3 11 11 6 3 7 8 10 11 10 7 10 11
19 20 21 23 25 26 25 26 27 27 26 25 23 21 18 5 12 11 6 7 9 4 6 9 9 5 3 5 2 7 1 10 8 8 6 6 5 4 6 6 8 10 11 10 13 13 14
18 20 21 22 24 26 27 26 27 27 26 26 24 21 18 5 7 13 6 5 5 7 3 6 4 8 11 4 2 2 2 3 1 8 4 5 5 4 11 8 4 8 11 14 15 13 12
17 19 21 22 23 25 26 27 27 27 27 27 25 21 11 9 8 8 7 6 7 9 4 6 5 5 5 6 6 3 3 5 9 8 6 5 7 4 4 10 10 6 9 8 6 9 9
15 18 21 22 24 25 26 27 28 29 28 28 27 19 9 10 7 5 6 8 11 7 2 6 4 2 4 3 4 1 5 8 9 11 10 9 6 4 4 7 10 9 5 6 7 9 13
14 17 19 22 24 26 27 28 29 29 30 29 27 6 9 10 4 4 8 9 5 10 9 7 2 9 9 7 5 1 2 8 8 9 9 9 5 5 4 5 8 7 4 11 8 12 12
13 15 18 20 23 26 27 28 29 31 34 23 7 10 10 5 1 5 7 13 4 5 5 3 11 4 12 8 2 4 5 4 4 5 8 6 7 3 5 5 10 7 9 6 4 7 11
11 14 17 18 21 23 26 28 29 31 34 25 5 7 6 3 4 6 9 6 7 8 8 5 7 5 4 7 3 9 4 9 3 7 8 7 4 7 4 5 6 2 6 10 8 7 8
12 12 15 17 20 22 24 27 27 28 34 11 7 6 6 4 7 9 7 5 3 5 1 1 4 5 4 5 8 3 3 9 6 8 8 7 5 8 14 16 8 5 10 9 5 8 9
12 11 12 14 19 21 23 25 27 24 18 9 7 9 6 4 7 8 8 4 3 1 2 3 1 0 4 6 2 7 2 9 7 7 9 11 3 6 7 8 8 5 4 5 8 8 10
12 11 11 13 16 19 22 25 27 28 18 7 7 5 4 4 3 8 2 6 8 1 1 5 6 1 5 7 6 4 4 6 4 4 6 3 4 8 8 14 17 12 14 14 12 4 13
11 12 11 11 14 18 21 23 27 31 30 6 5 4 4 7 8 9 4 6 4 4 1 2 3 4 5 4 9 12 1 1 7 10 3 2 6 11 14 16 17 17 18 16 15 14 15
12 12 12 11 13 15 17 20 24 29 37 4 6 6 8 3 5 7 3 2 5 7 1 4 2 8 3 5 3 8 9 8 5 8 1 2 6 11 15 16 16 14 14 16 17 13 14
12 12 12 11 11 13 15 17 21 24 25 6 8 7 7 4 4 6 7 8 6 4 4 4 6 7 7 10 9 8 7 8 9 8 9 8 7 6 6 14 16 11 7 9 12 13 15
11 11 12 11 11 11 13 15 18 20 18 8 7 8 7 8 2 9 6 3 2 5 7 5 2 5 9 10 11 10 11 11 11 10 7 7 7 3 7 12 5 11 14 8 9 12 15
12 14 13 12 11 10 10 12 15 17 18 9 6 6 6 8 9 2 0 5 2 8 5 2 6 8 8 8 7 9 8 8 12 7 6 3 5 2 3 6 14 15 13 5 3 9 14
12 11 12 12 10 10 9 10 12 15 18 9 5 6 6 6 8 8 9 3 6 6 6 6 8 3 4 7 7 8 6 1 7 9 4 6 4 5 3 1 5 10 11 10 11 10 12
10 10 11 10 10 10 9 9 10 13 16 8 4 5 6 6 6 6 6 8 6 5 6 1 4 1 1 3 6 7 9 4 2 5 7 6 6 8 6 5 8 7 12 11 8 9 15
10 11 10 9 11 10 10 8 8 10 14 9 4 3 5 6 7 6 4 5 6 4 4 5 3 4 4 6 5 5 4 4 3 3 4 3 3 6 7 8 4 9 10 5 6 9 13
10 10 12 10 11 11 10 9 7 9 11 10 5 5 2 5 5 5 7 7 5 6 5 3 1 2 4 2 4 4 6 6 10 5 4 3 5 4 3 4 13 11 11 8 7 8 6
Wind_Direction
8 7 7 5 2 360 357 356 355 351 351 346 341 337 333 328 323 316 310 305 300 296 292 292 304 313 279 236 158 138 154 174 243 228 242 240 233 235 244 243 247 216 212 255 239 268 286
7 4 2 0 359 358 356 356 355 354 351 344 342 339 334 329 322 315 309 301 294 289 282 279 279 273 249 269 100 137 205 189 231 213 232 239 241 243 260 253 255 259 211 228 242 235 268
6 3 360 358 356 356 356 356 356 354 349 346 344 340 335 329 323 315 307 295 285 278 277 271 251 259 268 345 119 160 217 226 237 219 237 224 265 271 251 270 282 279 278 270 254 235 228
4 2 359 357 356 355 355 355 355 354 351 349 347 340 336 329 323 316 305 293 281 273 270 258 242 258 286 14 324 210 215 210 235 288 313 16 312 288 274 278 266 275 252 256 252 231 214
2 0 359 357 356 354 353 354 354 352 352 350 346 341 336 331 323 316 309 301 274 269 259 245 240 221 234 129 213 180 300 284 199 219 234 324 262 256 249 240 259 237 253 251 243 239 167
360 0 359 357 356 354 352 353 352 353 351 350 347 341 334 329 323 319 311 286 310 271 223 240 258 269 228 86 68 328 173 285 245 239 229 223 234 238 231 234 240 248 246 232 254 149 157
356 357 358 357 355 353 351 352 352 352 350 348 346 341 335 328 324 329 313 232 220 208 235 267 39 260 125 98 190 208 157 217 245 248 243 208 222 227 229 217 235 291 303 305 7 117 169
354 354 354 355 355 353 351 350 351 351 349 346 344 340 334 328 325 321 275 256 24 312 292 192 264 312 339 263 190 109 226 236 185 238 207 237 226 251 16 1 344 307 278 278 272 298 48
352 351 352 351 352 352 351 350 348 349 348 344 341 337 332 327 321 269 242 330 304 327 276 175 218 181 189 243 29 51 258 271 244 252 213 256 71 18 315 271 271 262 267 281 351 346 316
350 350 351 348 349 351 350 348 347 346 347 343 339 333 331 323 294 256 252 316 291 22 271 139 196 140 203 233 141 321 316 292 235 321 14 270 59 332 281 259 265 281 19 350 311 295 288
347 347 348 348 346 348 348 346 345 344 343 341 336 330 324 327 312 295 14 299 346 277 262 155 124 72 329 266 70 123 338 272 300 13 265 30 32 289 258 21 23 303 4 308 289 278 280
345 345 345 346 346 345 344 344 343 342 340 337 333 326 327 211 229 264 295 292 223 238 295 126 156 202 201 174 112 98 194 245 251 297 276 15 7 331 352 351 334 318 286 275 259 249 256
344 344 344 344 345 344 343 341 341 340 338 335 328 319 306 305 304 343 308 224 235 263 148 138 198 206 266 108 173 320 348 71 352 325 244 168 151 102 320 306 192 233 312 313 302 216 246
346 345 344 344 344 343 342 340 340 337 337 333 323 316 229 257 294 323 273 239 264 229 44 33 319 207 267 71 167 9 251 148 61 351 314 307 167 139 64 2 331 309 345 311 315 329 323
346 346 346 344 343 342 341 340 338 339 336 335 313 237 247 218 327 280 269 244 293 347 28 334 209 274 179 152 296 225 109 16 44 14 349 328 61 125 68 340 319 4 336 359 316 289 267
342 346 343 345 342 341 340 341 339 340 335 342 315 278 243 117 93 255 246 258 297 52 326 283 290 41 320 85 295 191 117 52 56 26 346 4 304 33 67 292 242 266 349 317 282 288 293
336 342 342 343 341 340 339 340 340 342 337 331 257 251 103 233 177 239 247 326 90 69 349 321 352 303 335 339 343 312 345 102 31 16 319 306 281 302 173 234 348 260 301 318 314 327 295
326 338 338 338 339 340 338 339 340 346 337 345 296 264 110 198 229 228 260 36 20 48 274 26 310 351 321 18 306 313 3 62 38 343 317 62 321 294 295 311 66 315 296 303 309 307 309
318 323 334 335 337 337 336 338 338 345 0 316 289 304 115 223 254 284 121 112 53 304 58 336 329 337 44 304 35 318 33 93 52 345 30 358 310 316 324 270 102 273 305 315 277 260 259
314 318 321 330 334 334 336 338 338 336 347 302 277 294 146 213 282 305 62 184 153 75 14 299 324 349 293 279 188 267 278 116 125 67 59 347 274 272 274 299 317 306 302 300 296 278 284
309 314 319 326 329 334 336 340 340 335 333 282 259 34 2 346 39 339 326 12 280 147 259 106 247 240 354 14 328 309 351 342 182 143 164 277 291 305 301 307 301 295 292 289 287 291 291
307 313 317 318 320 329 335 340 343 342 332 228 340 350 338 324 313 290 145 106 341 83 304 107 295 336 341 288 271 293 348 336 302 168 162 127 293 311 304 284 275 292 306 301 288 305 320
311 314 312 309 307 321 333 341 347 353 342 341 4 343 280 290 203 264 56 54 47 9 119 340 357 325 299 34 350 339 325 300 292 296 300 310 290 324 282 345 314 298 324 339 331 331 351
310 313 315 310 295 310 329 341 346 350 2 312 6 313 290 294 291 37 5 9 327 33 339 14 356 310 28 334 314 277 253 250 249 247 237 266 270 228 286 319 287 18 331 358 360 352 340
300 303 309 312 287 294 317 335 340 343 352 320 326 342 323 302 354 179 329 335 311 149 222 316 24 36 345 299 278 232 221 232 227 213 166 194 269 339 293 308 298 291 29 17 62 325 33
287 290 299 300 280 276 295 317 334 340 349 316 28 333 297 299 47 2 325 355 301 319 172 160 97 48 308 282 257 254 285 277 158 144 193 151 237 138 40 340 279 329 17 359 333 286 19
280 292 296 298 288 261 276 299 325 338 343 327 312 23 285 293 64 4 359 340 354 327 302 73 95 263 265 268 272 279 271 23 267 288 152 213 217 205 191 215 251 62 353 337 293 334 353
272 287 287 305 310 249 260 277 306 331 340 339 326 50 328 312 328 18 357 328 331 287 291 54 307 154 273 259 275 314 338 339 356 304 345 264 273 284 280 251 271 356 1 27 2 345 340
268 274 287 289 295 240 241 256 283 313 330 340 271 138 359 270 335 340 295 303 309 339 321 229 8 267 342 307 336 6 318 337 332 296 152 261 217 184 163 279 326 356 12 64 11 21 26